SCP
0 -0 -0 -0 -0 -0 -0 -0 -0 -0 -0 -0 -0 -0 -0 -0 -0 -0 -0 -0 -0 -0 -0 -0 -0 -0 -0 -0 -0 -0 -0 -0 -0 -0 -0 -0 -0 -0 -0 -0 -0 0 -0
0 -0 -0 -0 -0 -0 -0 -0 -0 -0 -0 -0 -0 -0 -0 -0 -0 -0 -0 -0 -0 -0 -0 -0 -0 -0 -0 -0 -0 -0 -0 -0 -0 0 0 0 -0 -0 -0 0 0 0 -0
0 0 -0 -0 -0 -0 -0 -0 -0 -0 -0 -0 -0 -0 -0 -0 -0 -0 -0 -0 -0 -0 -0 -0 -0 -0 -0 -0 -0 -0 -0 -0 -0 0 0 0 0 0 0 0 0 0 0
0 0 0 -0 -0 -0 -0 -0 -0 -0 -0 -0 -0 -0 -0 -0 -0 -0 -0 -0 -0 -0 -0 -0 -0 -0 -0 -0 -0 -0 -0 -0 -0 0 0 0 -0 0 0 0 0 0 0
0 0 0 0 0 0 0 0 -0 -0 -0 -0 -0 -0 -0 -0 -0 -0 -0 -0 -0 -0 0 -0 -0 -0 -0 -0 -0 -0 -0 -0 -0 -0 -0 0 0 0 0 0 0 0 0
0 0 0 -0 0 0 0 0 0 -0 -0 -0 -0 -0 0 -0 -0 -0 -0 -0 -0 -0 -0 -0 0 -0 -0 -0 -0 -0 -0 -0 -0 0 0 -0 -0 -0 -0 -0 0 0 0
0 0 0 -0 -0 -0 -0 -0 0 0 0 0 0 0 -0 0 -0 -0 -0 -0 -0 -0 -0 -0 -0 0 0 0 -0 -0 0 0 0 0 0 0 0 -0 -0 -0 -0 0 0
-0 -0 -0 -0 -0 -0 -0 -0 -0 0 0 0 0 0 0 0 0 0 0 0 -0 -0 -0 -0 -0 -0 -0 -0 -0 0 -0 -0 0 0 0 0 0 0 0 0 0 0 0
-0 -0 -0 -0 -0 -0 -0 -0 -0 -0 0 0 0 0 0 0 0 0 0 0 0 -0 -0 -0 -0 -0 -0 -0 -0 -0 -0 -0 -0 0 0 0 0 0 0 0 0 0 0
-0 0 -0 -0 -0 -0 -0 -0 -0 -0 -0 0 0 0 0 0 0 0 0 0 0 0 -0 -0 -0 -0 -0 -0 -0 0 0 0 0 0 0 0 0 0 0 0 0 0 0
-0 -0 -0 0 0 0 -0 -0 -0 -0 -0 0 0 0 0 0 0 0 0 0 0 0 0 0 0 0 0 -0 -0 0 0 0 0 0 0 0 0 0 0 0 0 0 0
-0 -0 -0 -0 0 0 0 0 0 0 0 0 0 0 0 0 0 0 0 0 0 0 0 0 0 0 0 0 0 0 0 0 0 0 0 0 0 0 0 0 0 0 0
0 0 -0 -0 -0 0 0 0 0 0 0 0 0 0 0 0 0 0 0 0 0 0 0 0 0 0 0 0 0 0 0 0 0 0 0 0 0 0 0 0 0 0 0
0 0 0 0 0 0 0 0 0 0 0 0 0 0 0 0 0 0 0 0 0 0 0 0 0 0 0 0 0 0 0 0 0 0 0 0 0 0 0 0 0 0 0
0 0 0 0 0 0 0 0 0 0 0 0 0 0 0 0 0 0 0 0 0 0 0 0 0 0 0 0 0 0 0 0 0 0 0 0 0 0 0 0 0 0 0
0 0 0 0 0 0 0 0 0 0 0 0 0 0 0 0 0 0 0 0 0 0 0 0 0 0 0 0 0 0 0 0 0 0 0 0 0 0 0 0 0 0 0
0 0 0 0 0 0 0 0 0 0 0 0 0 0 0 0 0 0 0 0 0 0 0 0 0 0 0 0 0 0 0 0 0 0 0 0 0 0 0 0 0 0 0
0 0 0 0 0 0 0 0 0 0 0 0 0 0 0 0 0 0 0 0 0 0 0 0 0 0 0 0 0 0 0 0 0 0 0 0 0 0 0 0 0 0 0
0 0 0 0 0 0 0 0 0 0 0 0 0 0 0 0 0 0 0 0 0 0 0 0 0 0 0 0 0 0 0 0 0 0 0 0 0 0 0 0 0 0 0
0 0 0 0 0 0 0 0 0 0 0 0 0 0 0 0 0 0 0 0 0 0 0 0 0 0 0 0 0 0 0 0 0 0 0 0 0 0 0 0 0 0 0
0 0 0 0 0 0 0 0 0 0 0 0 0 0 0 0 0 0 0 0 0 0 0 0 0 0 0 0 0 0 0 0 0 0 0 0 0 0 0 0 0 0 0
0 0 0 0 0 0 0 0 0 0 0 0 0 0 0 0 0 0 0 0 0 0 0 0 0 0 0 0 0 0 0 0 0 0 0 0 0 0 0 0 0 0 0
0 0 0 0 0 0 0 0 0 0 0 0 0 0 0 0 0 0 0 0 0 0 0 0 0 0 0 0 0 0 0 0 0 0 0 0 0 0 0 0 0 0 0
0 0 0 0 0 0 0 0 0 0 0 0 0 0 0 0 0 0 0 0 0 0 0 0 0 0 0 0 0 0 0 0 0 0 0 0 0 0 0 0 0 0 0
0 0 0 0 0 0 0 0 0 0 0 0 0 0 0 0 0 0 0 0 0 0 0 0 0 0 0 0 0 0 0 0 0 0 0 0 0 0 0 0 0 0 0
0 0 0 0 0 0 0 0 0 0 0 0 0 0 0 0 0 0 0 0 0 0 0 0 0 0 0 0 0 0 0 0 0 0 0 0 0 0 0 0 0 0 0
Wind_Speed_500mb
12 8 11 11 11 12 13 13 15 17 19 19 20 23 25 25 27 28 28 26 25 24 23 31 34 28 32 35 36 37 36 35 34 36 33 24 20 22 22 23 23 24 24
14 5 11 12 12 13 13 14 14 17 16 16 18 19 20 23 25 26 27 26 25 27 32 31 29 26 27 30 33 36 35 34 30 31 31 29 16 17 19 19 19 20 21
17 10 11 14 13 13 12 12 14 15 15 14 15 17 18 20 23 24 25 26 26 28 29 29 28 27 28 30 32 31 31 30 32 23 22 22 17 13 14 13 15 15 17
18 12 12 13 14 14 13 12 12 14 14 15 15 17 17 18 20 21 21 23 24 25 27 27 27 27 28 29 30 30 27 24 21 17 17 17 11 12 11 10 12 12 12
27 18 14 13 13 13 12 12 12 13 13 14 13 14 14 16 17 19 17 18 19 20 22 24 25 26 26 26 27 26 23 22 17 17 10 11 9 10 10 10 9 9 9
27 21 18 16 15 13 14 14 14 13 12 11 11 12 11 11 11 12 11 12 13 16 18 19 22 24 23 23 23 23 20 19 14 17 16 13 12 13 9 8 7 7 7
25 19 22 20 18 16 15 14 14 14 11 11 10 9 7 5 7 7 8 10 10 12 14 15 18 20 21 21 22 21 17 15 14 14 19 20 13 13 11 8 8 6 5
23 21 25 24 21 18 16 15 15 12 11 10 8 7 7 6 6 6 5 5 6 7 9 10 12 13 16 16 17 17 14 10 14 12 16 18 19 14 11 11 9 8 5
23 19 28 26 23 20 18 18 16 13 11 8 7 7 7 8 6 5 4 2 1 4 4 5 6 9 13 14 13 11 13 11 12 10 12 14 13 15 15 11 7 6 6
26 21 25 25 23 21 20 19 17 15 11 8 7 7 8 9 8 6 4 3 3 4 4 3 5 8 9 11 14 11 13 12 5 10 13 13 11 10 10 9 9 9 8
30 25 23 25 25 22 22 21 20 17 14 12 10 11 9 6 8 8 5 5 4 2 1 1 4 6 7 10 12 6 9 4 5 9 14 11 11 9 9 8 8 9 10
33 34 26 23 26 25 21 23 21 18 16 14 15 14 13 12 10 1 4 4 4 3 2 3 4 5 8 8 9 7 3 3 8 11 13 16 13 12 11 12 14 16 16
27 30 31 28 26 23 21 20 20 20 18 18 19 17 13 12 6 6 6 4 2 2 1 5 6 6 6 5 9 9 4 7 11 14 19 20 14 17 20 21 22 23 23
35 29 26 28 30 28 26 21 19 17 16 14 17 16 15 14 11 12 10 9 8 7 5 3 6 10 9 9 11 13 10 10 16 18 21 20 21 22 22 22 24 26 27
38 35 30 26 28 28 28 21 16 12 13 12 17 17 19 13 14 16 13 14 11 11 11 13 14 15 16 16 18 17 17 18 17 20 20 22 25 25 25 25 25 27 28
36 39 38 35 30 30 33 27 26 24 21 21 25 19 26 25 23 18 19 17 17 15 13 14 16 16 16 17 16 21 21 22 24 25 28 27 26 27 28 27 27 29 29
43 39 45 44 38 35 38 33 36 33 32 33 31 23 25 29 25 22 21 19 17 16 17 17 18 16 15 17 15 16 16 15 15 16 21 25 29 30 30 30 30 30 29
48 49 42 43 42 38 37 39 38 38 37 35 35 29 25 25 26 24 22 21 17 17 17 17 16 15 16 17 17 16 18 21 22 21 21 25 29 30 30 31 30 27 28
49 52 48 42 39 39 39 39 39 39 41 38 36 30 28 28 26 25 24 21 19 18 17 15 15 13 13 15 17 17 17 18 21 22 25 28 31 33 30 28 26 24 25
50 51 50 47 40 38 40 40 41 39 39 39 38 33 30 29 28 28 26 23 21 19 17 15 14 13 12 14 15 17 19 19 18 17 20 24 29 33 29 26 25 22 23
51 53 56 54 47 42 43 48 49 47 42 40 39 37 33 31 31 30 29 26 23 21 19 16 15 15 15 15 17 16 15 17 16 15 18 17 20 24 25 24 22 23 27
58 55 55 56 52 49 45 44 48 44 42 38 39 40 37 34 33 32 30 27 24 22 20 18 17 17 16 15 16 20 10 16 15 17 20 23 22 23 22 27 23 23 26
54 55 54 55 53 52 46 42 47 46 45 46 47 45 43 39 36 35 34 30 27 24 22 20 18 17 16 18 17 13 9 7 11 18 23 21 21 19 26 25 25 21 24
48 49 52 49 49 49 49 48 48 50 52 51 44 41 41 43 41 40 37 34 30 28 26 24 21 18 18 19 23 22 20 24 16 12 23 24 24 33 22 26 26 23 26
26 33 39 45 47 46 50 50 48 49 50 49 43 41 41 42 45 44 42 39 36 33 31 28 25 21 22 24 24 25 27 27 29 29 34 30 24 24 31 33 25 28 32
4 9 17 27 38 39 42 48 50 50 50 53 51 51 48 48 49 48 48 46 42 39 36 33 29 26 25 26 26 27 28 29 29 24 28 33 33 27 26 29 35 33 33
Wind_Direction_500mb
172 253 187 154 135 123 112 106 99 94 92 87 82 72 73 75 76 78 82 87 97 85 87 87 77 74 80 80 79 78 77 73 70 67 60 62 74 83 77 79 77 79 84
162 200 175 153 143 131 120 113 105 103 97 95 93 83 74 77 80 80 79 78 74 69 68 70 77 74 78 79 80 83 84 70 63 60 60 54 58 78 82 79 78 76 76
165 206 169 149 140 130 124 118 116 111 107 99 100 93 85 84 82 82 80 77 76 74 74 77 76 72 72 74 76 83 89 85 69 64 60 46 49 72 84 83 80 80 74
165 170 159 148 141 136 135 135 126 116 110 107 104 99 95 94 85 85 82 80 78 78 81 83 80 77 75 73 74 82 86 82 79 79 68 58 23 64 83 85 83 69 65
157 167 167 161 152 145 145 145 138 125 120 115 109 103 106 98 90 85 80 77 79 82 84 86 86 82 77 74 73 75 72 77 73 71 89 60 16 70 76 73 80 76 65
182 193 201 178 166 160 154 149 142 136 127 123 117 112 110 101 100 88 83 82 86 87 86 85 84 79 71 68 67 66 66 63 60 51 51 42 71 71 77 78 72 57 50
183 190 185 178 172 166 159 153 148 142 138 135 132 127 119 115 109 100 92 95 94 93 90 90 86 77 61 59 57 59 63 51 52 33 41 42 54 70 72 77 79 73 46
191 199 181 175 174 173 165 163 159 153 154 151 152 148 142 144 134 122 119 106 107 102 98 90 84 63 50 45 46 50 59 52 32 29 37 37 44 51 52 52 51 51 43
208 186 181 179 181 181 179 174 176 173 169 164 167 164 166 161 170 193 191 189 197 123 107 99 78 30 22 20 31 37 65 64 36 25 14 19 36 47 50 51 40 26 21
209 201 180 183 188 188 190 189 188 185 191 200 206 190 182 175 180 184 188 179 169 135 116 69 31 13 14 10 27 82 100 68 10 4 340 354 12 31 37 39 38 31 12
195 204 191 187 192 193 193 191 194 201 208 209 200 187 171 180 160 160 154 152 164 175 189 309 341 342 338 353 26 102 107 93 331 331 318 324 343 351 3 360 5 3 357
199 196 211 202 198 196 200 201 204 208 204 193 187 186 186 172 158 110 135 172 182 203 234 283 306 325 321 333 339 352 219 215 232 279 297 308 318 318 326 327 322 320 319
209 204 206 207 208 214 205 202 204 204 201 192 192 189 192 204 197 178 143 122 133 214 240 298 282 309 330 289 287 299 295 248 260 262 265 279 289 296 301 302 301 300 302
217 218 215 210 210 207 214 212 204 201 207 203 209 207 204 199 182 202 193 191 216 238 232 257 239 287 299 298 301 303 281 265 270 282 286 286 286 290 293 296 294 293 292
217 220 227 223 217 209 207 215 200 206 217 218 211 213 213 187 199 203 208 223 218 231 257 262 270 269 275 269 277 278 285 287 280 280 286 292 295 296 293 295 293 290 289
224 219 223 231 229 215 213 208 198 214 215 230 216 222 214 210 214 208 215 230 242 255 261 264 265 270 271 265 257 264 270 269 273 279 285 290 294 292 293 296 296 293 293
230 227 226 230 233 224 217 211 202 212 216 225 233 231 217 222 230 234 238 241 249 251 256 260 264 272 270 270 276 278 276 272 280 280 281 292 294 296 297 299 297 297 294
229 230 234 233 235 231 220 216 214 216 223 229 239 240 232 227 231 237 240 249 249 250 251 255 263 266 270 272 277 277 278 284 289 283 279 279 286 293 301 299 294 294 295
229 229 233 235 235 232 225 219 221 223 228 237 241 236 234 235 238 240 245 248 246 249 250 250 256 258 262 270 275 280 285 284 280 278 274 279 287 295 300 300 295 300 297
228 228 235 239 240 233 229 224 226 229 230 235 242 242 237 236 236 240 245 249 250 252 253 252 257 264 267 274 283 286 288 289 287 292 281 279 285 293 302 305 300 292 289
223 227 229 232 234 232 229 227 227 232 234 238 243 243 240 238 238 242 245 249 251 252 251 250 257 268 280 289 296 294 294 283 275 278 294 301 301 308 313 307 297 282 275
223 224 228 231 234 239 240 241 239 240 245 247 250 246 244 241 240 243 248 251 252 252 254 259 267 272 278 288 298 312 312 303 275 270 281 296 307 310 313 311 305 291 290
223 224 227 232 236 241 246 243 240 237 241 240 239 243 245 245 244 245 248 250 251 250 252 254 256 266 276 285 288 293 311 279 282 261 263 272 290 302 308 313 309 296 293
222 222 226 229 234 240 245 248 249 248 246 248 251 254 252 248 245 245 246 247 247 247 247 248 254 263 273 279 282 280 271 272 282 276 269 270 274 294 294 304 301 298 288
216 226 229 233 236 238 242 249 255 256 256 254 256 255 252 249 248 245 246 246 246 246 247 247 250 258 270 275 275 275 276 277 273 268 276 279 279 285 291 291 287 306 290
171 239 245 241 237 235 243 251 257 262 262 254 251 253 253 252 252 249 245 244 243 243 243 243 250 260 270 275 276 275 275 271 274 268 268 278 284 281 280 271 286 290 291
Wind_Speed_850mb
12 8 11 11 11 12 13 13 15 17 19 19 20 23 25 25 27 28 28 26 25 24 23 31 34 28 32 35 36 37 36 35 34 36 33 24 20 22 22 23 23 24 24
14 5 11 12 12 13 13 14 14 17 16 16 18 19 20 23 25 26 27 26 25 27 32 31 29 26 27 30 33 36 35 34 30 31 31 29 16 17 19 19 19 20 21
17 10 11 14 13 13 12 12 14 15 15 14 15 17 18 20 23 24 25 26 26 28 29 29 28 27 28 30 32 31 31 30 32 23 22 22 17 13 14 13 15 15 17
18 12 12 13 14 14 13 12 12 14 14 15 15 17 17 18 20 21 21 23 24 25 27 27 27 27 28 29 30 30 27 24 21 17 17 17 11 12 11 10 12 12 12
27 18 14 13 13 13 12 12 12 13 13 14 13 14 14 16 17 19 17 18 19 20 22 24 25 26 26 26 27 26 23 22 17 17 10 11 9 10 10 10 9 9 9
27 21 18 16 15 13 14 14 14 13 12 11 11 12 11 11 11 12 11 12 13 16 18 19 22 24 23 23 23 23 20 19 14 17 16 13 12 13 9 8 7 7 7
25 19 22 20 18 16 15 14 14 14 11 11 10 9 7 5 7 7 8 10 10 12 14 15 18 20 21 21 22 21 17 15 14 14 19 20 13 13 11 8 8 6 5
23 21 25 24 21 18 16 15 15 12 11 10 8 7 7 6 6 6 5 5 6 7 9 10 12 13 16 16 17 17 14 10 14 12 16 18 19 14 11 11 9 8 5
23 19 28 26 23 20 18 18 16 13 11 8 7 7 7 8 6 5 4 2 1 4 4 5 6 9 13 14 13 11 13 11 12 10 12 14 13 15 15 11 7 6 6
26 21 25 25 23 21 20 19 17 15 11 8 7 7 8 9 8 6 4 3 3 4 4 3 5 8 9 11 14 11 13 12 5 10 13 13 11 10 10 9 9 9 8
30 25 23 25 25 22 22 21 20 17 14 12 10 11 9 6 8 8 5 5 4 2 1 1 4 6 7 10 12 6 9 4 5 9 14 11 11 9 9 8 8 9 10
33 34 26 23 26 25 21 23 21 18 16 14 15 14 13 12 10 1 4 4 4 3 2 3 4 5 8 8 9 7 3 3 8 11 13 16 13 12 11 12 14 16 16
27 30 31 28 26 23 21 20 20 20 18 18 19 17 13 12 6 6 6 4 2 2 1 5 6 6 6 5 9 9 4 7 11 14 19 20 14 17 20 21 22 23 23
35 29 26 28 30 28 26 21 19 17 16 14 17 16 15 14 11 12 10 9 8 7 5 3 6 10 9 9 11 13 10 10 16 18 21 20 21 22 22 22 24 26 27
38 35 30 26 28 28 28 21 16 12 13 12 17 17 19 13 14 16 13 14 11 11 11 13 14 15 16 16 18 17 17 18 17 20 20 22 25 25 25 25 25 27 28
36 39 38 35 30 30 33 27 26 24 21 21 25 19 26 25 23 18 19 17 17 15 13 14 16 16 16 17 16 21 21 22 24 25 28 27 26 27 28 27 27 29 29
43 39 45 44 38 35 38 33 36 33 32 33 31 23 25 29 25 22 21 19 17 16 17 17 18 16 15 17 15 16 16 15 15 16 21 25 29 30 30 30 30 30 29
48 49 42 43 42 38 37 39 38 38 37 35 35 29 25 25 26 24 22 21 17 17 17 17 16 15 16 17 17 16 18 21 22 21 21 25 29 30 30 31 30 27 28
49 52 48 42 39 39 39 39 39 39 41 38 36 30 28 28 26 25 24 21 19 18 17 15 15 13 13 15 17 17 17 18 21 22 25 28 31 33 30 28 26 24 25
50 51 50 47 40 38 40 40 41 39 39 39 38 33 30 29 28 28 26 23 21 19 17 15 14 13 12 14 15 17 19 19 18 17 20 24 29 33 29 26 25 22 23
51 53 56 54 47 42 43 48 49 47 42 40 39 37 33 31 31 30 29 26 23 21 19 16 15 15 15 15 17 16 15 17 16 15 18 17 20 24 25 24 22 23 27
58 55 55 56 52 49 45 44 48 44 42 38 39 40 37 34 33 32 30 27 24 22 20 18 17 17 16 15 16 20 10 16 15 17 20 23 22 23 22 27 23 23 26
54 55 54 55 53 52 46 42 47 46 45 46 47 45 43 39 36 35 34 30 27 24 22 20 18 17 16 18 17 13 9 7 11 18 23 21 21 19 26 25 25 21 24
48 49 52 49 49 49 49 48 48 50 52 51 44 41 41 43 41 40 37 34 30 28 26 24 21 18 18 19 23 22 20 24 16 12 23 24 24 33 22 26 26 23 26
26 33 39 45 47 46 50 50 48 49 50 49 43 41 41 42 45 44 42 39 36 33 31 28 25 21 22 24 24 25 27 27 29 29 34 30 24 24 31 33 25 28 32
4 9 17 27 38 39 42 48 50 50 50 53 51 51 48 48 49 48 48 46 42 39 36 33 29 26 25 26 26 27 28 29 29 24 28 33 33 27 26 29 35 33 33
Wind_Direction_850mb
172 253 187 154 135 123 112 106 99 94 92 87 82 72 73 75 76 78 82 87 97 85 87 87 77 74 80 80 79 78 77 73 70 67 60 62 74 83 77 79 77 79 84
162 200 175 153 143 131 120 113 105 103 97 95 93 83 74 77 80 80 79 78 74 69 68 70 77 74 78 79 80 83 84 70 63 60 60 54 58 78 82 79 78 76 76
165 206 169 149 140 130 124 118 116 111 107 99 100 93 85 84 82 82 80 77 76 74 74 77 76 72 72 74 76 83 89 85 69 64 60 46 49 72 84 83 80 80 74
165 170 159 148 141 136 135 135 126 116 110 107 104 99 95 94 85 85 82 80 78 78 81 83 80 77 75 73 74 82 86 82 79 79 68 58 23 64 83 85 83 69 65
157 167 167 161 152 145 145 145 138 125 120 115 109 103 106 98 90 85 80 77 79 82 84 86 86 82 77 74 73 75 72 77 73 71 89 60 16 70 76 73 80 76 65
182 193 201 178 166 160 154 149 142 136 127 123 117 112 110 101 100 88 83 82 86 87 86 85 84 79 71 68 67 66 66 63 60 51 51 42 71 71 77 78 72 57 50
183 190 185 178 172 166 159 153 148 142 138 135 132 127 119 115 109 100 92 95 94 93 90 90 86 77 61 59 57 59 63 51 52 33 41 42 54 70 72 77 79 73 46
191 199 181 175 174 173 165 163 159 153 154 151 152 148 142 144 134 122 119 106 107 102 98 90 84 63 50 45 46 50 59 52 32 29 37 37 44 51 52 52 51 51 43
208 186 181 179 181 181 179 174 176 173 169 164 167 164 166 161 170 193 191 189 197 123 107 99 78 30 22 20 31 37 65 64 36 25 14 19 36 47 50 51 40 26 21
209 201 180 183 188 188 190 189 188 185 191 200 206 190 182 175 180 184 188 179 169 135 116 69 31 13 14 10 27 82 100 68 10 4 340 354 12 31 37 39 38 31 12
195 204 191 187 192 193 193 191 194 201 208 209 200 187 171 180 160 160 154 152 164 175 189 309 341 342 338 353 26 102 107 93 331 331 318 324 343 351 3 360 5 3 357
199 196 211 202 198 196 200 201 204 208 204 193 187 186 186 172 158 110 135 172 182 203 234 283 306 325 321 333 339 352 219 215 232 279 297 308 318 318 326 327 322 320 319
209 204 206 207 208 214 205 202 204 204 201 192 192 189 192 204 197 178 143 122 133 214 240 298 282 309 330 289 287 299 295 248 260 262 265 279 289 296 301 302 301 300 302
217 218 215 210 210 207 214 212 204 201 207 203 209 207 204 199 182 202 193 191 216 238 232 257 239 287 299 298 301 303 281 265 270 282 286 286 286 290 293 296 294 293 292
217 220 227 223 217 209 207 215 200 206 217 218 211 213 213 187 199 203 208 223 218 231 257 262 270 269 275 269 277 278 285 287 280 280 286 292 295 296 293 295 293 290 289
224 219 223 231 229 215 213 208 198 214 215 230 216 222 214 210 214 208 215 230 242 255 261 264 265 270 271 265 257 264 270 269 273 279 285 290 294 292 293 296 296 293 293
230 227 226 230 233 224 217 211 202 212 216 225 233 231 217 222 230 234 238 241 249 251 256 260 264 272 270 270 276 278 276 272 280 280 281 292 294 296 297 299 297 297 294
229 230 234 233 235 231 220 216 214 216 223 229 239 240 232 227 231 237 240 249 249 250 251 255 263 266 270 272 277 277 278 284 289 283 279 279 286 293 301 299 294 294 295
229 229 233 235 235 232 225 219 221 223 228 237 241 236 234 235 238 240 245 248 246 249 250 250 256 258 262 270 275 280 285 284 280 278 274 279 287 295 300 300 295 300 297
228 228 235 239 240 233 229 224 226 229 230 235 242 242 237 236 236 240 245 249 250 252 253 252 257 264 267 274 283 286 288 289 287 292 281 279 285 293 302 305 300 292 289
223 227 229 232 234 232 229 227 227 232 234 238 243 243 240 238 238 242 245 249 251 252 251 250 257 268 280 289 296 294 294 283 275 278 294 301 301 308 313 307 297 282 275
223 224 228 231 234 239 240 241 239 240 245 247 250 246 244 241 240 243 248 251 252 252 254 259 267 272 278 288 298 312 312 303 275 270 281 296 307 310 313 311 305 291 290
223 224 227 232 236 241 246 243 240 237 241 240 239 243 245 245 244 245 248 250 251 250 252 254 256 266 276 285 288 293 311 279 282 261 263 272 290 302 308 313 309 296 293
222 222 226 229 234 240 245 248 249 248 246 248 251 254 252 248 245 245 246 247 247 247 247 248 254 263 273 279 282 280 271 272 282 276 269 270 274 294 294 304 301 298 288
216 226 229 233 236 238 242 249 255 256 256 254 256 255 252 249 248 245 246 246 246 246 247 247 250 258 270 275 275 275 276 277 273 268 276 279 279 285 291 291 287 306 290
171 239 245 241 237 235 243 251 257 262 262 254 251 253 253 252 252 249 245 244 243 243 243 243 250 260 270 275 276 275 275 271 274 268 268 278 284 281 280 271 286 290 291